Location: Conjunto Santa Maria
(19.9513°S, 43.9599°W)
Time: 13:48:29
(UTC+00:00)

Cosmos 1346 Rocket - Pass Details

Date: 21 January 2021
Orbit: 531 x 546 km, 81.2° (Epoch: 03 March)

Event Time Altitude Azimuth Distance (km) Brightness Sun altitude
Rises 21:52:05 0° 191° (S) 2,708 6.9 -3.3°
Reaches altitude 10° 21:54:17 10° 194° (SSW) 1,807 6.0 -3.7°
Maximum altitude 21:58:13 64° 275° (W) 596 3.3 -4.6°
Drops below altitude 10° 22:02:05 10° 357° (N) 1,777 5.2 -5.4°
Sets 22:04:14 0° 360° (N) 2,659 6.1 -5.9°
